Location: Kikino
(54.4440°N, 112.0940°W)
Time: 17:39:53
(UTC+00:00)

BlueWalker 3 - Visible Passes

Search period start: 10 June 2023 00:00
Search period end: 20 June 2023 00:00
Orbit: 493 x 513 km, 53.2° (Epoch: 09 June)

Date Brightness Start Highest point End Pass type
(mag) Time Alt. Az. Time Alt. Az. Time Alt. Az.
10 Jun 2.3 04:53:15 10° W 04:56:58 48° SSW 05:00:43 10° SE visible
10 Jun 3.7 06:32:21 10° W 06:34:52 17° SW 06:36:05 15° SSW visible
11 Jun 3.8 06:11:55 10° W 06:14:23 16° SW 06:16:01 13° SSW visible
12 Jun 3.9 05:51:28 10° W 05:53:54 16° SW 05:55:59 11° S visible
13 Jun 3.9 05:31:01 10° W 05:33:24 16° SW 05:35:46 10° S visible
14 Jun 4.0 05:10:33 10° WSW 05:12:53 15° SW 05:15:13 10° S visible
